Location: Brookfield Center
(41.2406°N, 80.5579°W)
Time: 13:35:25
(UTC+00:00)

Cosmos 1610 Rocket - Pass Details

Date: 18 January 2020
Orbit: 953 x 1002 km, 82.9° (Epoch: 16 February)

Event Time Altitude Azimuth Distance (km) Brightness Sun altitude
Rises 10:52:39 0° 349° (N) 3,674 7.3 -20.7°
Reaches altitude 10° 10:55:10 10° 347° (NNW) 2,730 6.6 -20.2°
Maximum altitude 11:01:22 68° 267° (W) 1,056 4.4 -19.1°
Drops below altitude 10° 11:07:36 10° 185° (S) 2,745 6.9 -18.0°
Sets 11:10:09 0° 183° (S) 3,695 7.7 -17.5°
